User: anonymous   Login
Location: Unspecified
(0.0000°N, 0.0000°E)
Time: 07:57:04
(UTC+00:00)
Language:

CUBESAT XI-V - Orbit

View from above orbital plane
View from above orbital plane
View from above satellite
View from above satellite

Ground track
Ground track

The orbit data is extracted from the following two-line orbital elements,

1 28895U 05043F   20269.89850244 +.00000130 +00000-0 +33812-4 0  9998
2 28895 098.0238 043.5206 0015944 328.0223 032.0010 14.63801586795309
Epoch (UTC): 25 September 2020 21:33:50
Eccentricity: 0.0015944
inclination: 98.0238°
perigee height: 669 km
apogee height: 692 km
right ascension of ascending node: 43.5206°
argument of perigee: 328.0223°
revolutions per day: 14.63801586
mean anomaly at epoch: 32.0010°
orbit number at epoch: 79530

The dashed part of the orbit path shows where the satellite is in the earth's shadow,  

DLR